Location: Battery Park City
(40.7115°N, 74.0163°W)
Time: 17:03:26
(UTC+00:00)

Lacrosse 5 rocket - Pass Details

Date: 08 December 2019
Orbit: 465 x 633 km, 57.0° (Epoch: 20 January)

Event Time Altitude Azimuth Distance (km) Brightness Sun altitude
Rises 21:52:20 0° 223° (SW) 2,839 6.5 -4.8°
Reaches altitude 10° 21:54:39 10° 223° (SW) 1,916 5.5 -5.2°
Maximum altitude 21:59:00 90° 282° (WNW) 575 1.4 -6.0°
Drops below altitude 10° 22:03:09 10° 44° (NE) 1,823 3.4 -6.7°
Enters shadow 22:03:47 - 44° (NE) 2,069 3.7 -6.8°
